Погода в Молодовом

Россия / Орловская область     52°52′11″N   35°16′56″E
темп.,
°C
ветер,
м/с
пор.,
м/с
влажн.,
%
обл.,
%
осадки,
мм/ч
давл.,
гПа
погр.,
м
23 апреля, пт
пт2300:00+8ю513875 0.2 1017283
03:00+7ю5138716 0.2 1016290
06:00+7ю6158570 0.1 1015396
09:00+11ююз8127630 0.1 1015804
12:00+13ююз91371100 0.6 10141721
15:00+8з4787100 4.1 1015579
18:00+7ссз2385100 6.0 1014337
21:00+7з1187100 6.2 101432
24 апреля, сб
сб2400:00+6зсз3677100 0.6 1013311
03:00+5з4783100 0.7 1012266
06:00+2з38905 0.0 1012208
09:00+5з577217 0.1 1011765
12:00+6зюз886996 1.3 10111434
15:00+6з8957100 2.1 10111859
18:00+4з8107832 0.3 10121002
21:00+3зсз81379100 1.4 1014973
25 апреля, вс
вс2500:000з614837 0.0 1015487
03:000зюз512875 0.0 1017346
06:000зюз513845 0.0 1017394
09:00+4зюз610645 0.0 10161055
12:00+8зюз71145100 0.0 10152505
15:00+9юз8114898 0.1 10142356
18:00+4з5895100 1.2 1014707
21:00+3зюз488679 1.6 1015381
26 апреля, пн
пн2600:000зюз35895 0.0 1016105
03:00−1зюз37895 0.0 1016138
06:00−1зюз37885 0.0 1016184
09:00+4зюз34675 0.0 1016686
12:00+6зюз445399 0.8 10141481
15:00+7зюз345093 1.3 10131590
18:00+6з4563100 0.4 10121011
21:00+3з4984100 1.1 1012302
27 апреля, вт
вт2700:00+1з5897100 0.0 1012430
03:000юз3893100 0.4 1013306
06:00−1зюз499314 0.0 1013231
09:00+4з58705 0.0 1014760
12:00+7з7852100 0.6 10132054
15:00+8зюз784898 0.8 10132012
18:00+6з576320 0.7 10141172
21:00+2зюз35800 1.1 101680